[[{"header":{"parameterUnit":"m.s-1","parameterCategory":1,"la1":30.2991,"la2":30.254,"lo1":-89.0895,"lo2":-89.0444,"dy":0.0017,"dx":0.0017,"nx":28,"ny":28,"refTime":"2024-06-25T09:00:00:Z","depth":0,"parameterNumber":2,"parameterNumberName":"U-component_of_WINDS"},"data":[0,0,0,0,0,0,0,0,0,0,0,0,0,0,0,0,0,0,0,0,0,0,0,0,0,0,0,0,0,0,0,0,0,0,0,0,0,0,0,0,0,0,0,0,0,0,0,0,0,0,0,0,0,0,0,0,0,0,2.9734,2.9734,0,2.9771,2.9771,2.9772,2.9718,2.9716,2.9714,2.9712,2.9752,2.9755,2.9758,0,0,0,0,0,0,0,0,0,0,0,0,0,2.9621,2.9623,2.9734,2.9734,2.9735,2.9771,2.9771,2.9772,2.9718,2.9716,2.9713,2.9711,2.9752,2.9755,2.9758,0,0,0,0,0,0,0,0,0,0,0,0,0,2.9665,2.9624,2.9734,2.9712,2.9711,2.9771,2.9771,2.9772,2.9718,2.9716,2.9713,2.971,2.975,2.9755,2.9759,2.9843,0,0,2.9772,2.9774,0,0,0,0,0,0,0,0,2.9663,2.9669,2.9715,2.9714,2.9712,2.9737,2.9746,2.9796,2.9719,2.9716,2.9712,2.9709,2.975,2.9754,2.9767,2.9845,2.9846,2.9772,2.9775,2.9777,2.9778,0,0,0,0,0,0,0,2.966,2.9668,2.9749,2.9716,2.9714,2.9702,2.9705,2.9755,2.9748,2.9716,2.9712,2.9717,2.9748,2.9763,2.9768,2.9847,2.9772,2.9776,2.9779,2.978,2.9999,3.0002,0,0,0,0,0,0,2.9659,2.9665,2.9747,2.975,2.968,2.9707,2.971,2.9732,2.9748,2.9747,2.9719,2.9714,2.9757,2.9763,2.9769,2.9871,2.9777,2.9781,2.9783,2.9996,3.0,3.0003,0,0,0,0,0,0,2.9657,2.9667,2.9746,2.9707,2.9716,2.9711,2.9736,2.9734,2.9749,2.975,2.9749,2.9735,2.9755,2.9763,2.9825,2.9871,2.9783,2.9787,2.9992,2.9997,3.0001,3.0073,0,0,0,0,0,0,2.9654,2.9666,2.9697,2.9708,2.9718,2.9801,2.9739,2.9737,2.9756,2.975,2.9765,2.9765,2.9754,2.9819,2.983,2.9875,2.979,2.9988,2.9994,3.0,3.0067,3.008,3.0091,0,0,0,0,0,2.965,2.9715,2.9698,2.9709,2.9756,2.9803,2.9809,2.9794,2.976,2.9791,2.9793,2.9764,2.9864,2.9826,2.9837,2.9885,2.9985,2.9992,2.9999,3.0061,3.0077,3.0091,0,0,0,0,0,0,2.971,2.9716,2.9698,2.9768,2.9786,2.9794,2.9833,2.9811,2.9839,2.9832,2.9813,2.9817,2.9885,2.9891,2.9848,2.9969,2.9919,2.9929,2.9962,2.9978,2.999,2.9987,2.9793,0,0,0,0,0,2.9731,2.9768,2.9772,2.9834,2.9844,2.9837,2.9857,2.9844,2.9862,2.9869,2.9875,2.9894,2.993,2.9954,2.9987,3.0067,3.0072,3.0106,3.0118,3.0128,3.0137,3.0184,3.02,3.0027,3.0027,3.0027,0,0,2.9776,2.9784,2.9808,2.9846,2.9858,2.9899,2.9844,2.9888,2.9918,2.9876,2.9936,2.9941,2.9961,3.0034,3.0066,3.0042,3.0186,3.0138,3.0146,3.0149,3.0193,3.0209,3.0224,3.0032,3.0031,3.003,0,0,2.9878,2.9887,2.9941,2.9954,2.9973,2.9969,2.9982,2.9995,2.9997,3.0056,3.0027,3.0063,3.0125,3.0141,3.0158,3.027,3.0246,3.0281,3.0346,3.0391,3.0405,3.0417,3.0459,3.0474,3.029,3.0291,3.0291,0,2.9931,2.9989,2.9971,3.0019,3.0038,3.0002,3.0058,3.0072,3.0101,3.0116,3.0087,3.0166,3.0177,3.0255,3.0282,3.0296,3.0313,3.028,3.0404,3.0416,3.0427,3.0467,3.0483,3.0295,3.0294,3.0294,3.0293,0,3.0055,3.0097,3.0138,3.0168,3.0191,3.0243,3.0235,3.0261,3.0247,3.0247,3.031,3.0322,3.0358,3.0375,3.0362,3.0452,3.0437,3.0406,3.0356,3.0448,3.0486,3.0501,3.0301,3.0299,3.0298,3.0297,0,0,3.0195,3.0216,3.0232,3.0246,3.0266,3.0298,3.0349,3.0384,3.0409,3.0431,3.0475,3.0529,3.0502,3.0521,3.0509,3.0549,3.0641,3.0514,3.0515,3.0539,3.0745,3.0769,3.0786,3.0625,3.0628,3.063,3.0744,0,3.0299,3.0386,3.0373,3.0458,3.0498,3.0466,3.0511,3.0529,3.0531,3.0566,3.0568,3.0608,3.0568,3.058,3.0617,3.0622,3.0682,3.0613,3.0668,3.067,3.0665,3.0806,3.083,3.0937,3.0758,3.0761,3.0762,0,3.0431,3.0459,3.0548,3.0564,3.058,3.0621,3.0654,3.0687,3.0708,3.0707,3.073,3.0712,3.0766,3.0714,3.0789,3.0743,3.0765,3.0771,3.0774,3.078,3.0722,3.0817,3.097,3.0987,3.0785,3.0783,3.0782,0,3.0527,3.0586,3.0648,3.0661,3.0681,3.0711,3.0721,3.0739,3.0762,3.0792,3.0807,3.0842,3.0862,3.0891,3.0884,3.0847,3.0962,3.0909,3.0965,3.0965,3.0991,3.0989,3.1152,3.1003,3.1002,3.1002,3.1002,0,3.0645,3.0701,3.0692,3.073,3.0793,3.0779,3.0843,3.0849,3.0866,3.0906,3.0881,3.0919,3.0907,3.0946,3.0941,3.1006,3.1015,3.1017,3.1015,3.102,3.102,3.1035,3.1028,3.1006,3.1005,3.1005,3.1004,0,3.0762,3.0758,3.0824,3.0838,3.0843,3.089,3.0903,3.094,3.094,3.0992,3.1004,3.1005,3.105,3.1046,3.1095,3.1092,3.1173,3.1162,3.1166,3.1164,3.1221,3.1216,3.1399,3.1424,3.1257,3.1259,3.126,0,3.0838,3.0881,3.0901,3.0926,3.0938,3.0979,3.1003,3.0991,3.1017,3.1047,3.1081,3.1123,3.1157,3.1231,3.1237,3.1276,3.1267,3.1328,3.1272,3.1277,3.127,3.1268,3.1274,3.1339,3.1341,3.1343,3.1344,0,3.0975,3.0971,3.1006,3.1042,3.1071,3.1098,3.1123,3.1146,3.1137,3.1168,3.1214,3.124,3.1292,3.1336,3.1373,3.1385,3.1365,3.1362,3.1377,3.1383,3.1385,3.1387,3.1198,3.1358,3.1356,3.1355,3.1355,3.1354,3.1075,3.1113,3.1134,3.1174,3.1192,3.1217,3.1253,3.1259,3.1296,3.1338,3.1329,3.1381,3.1404,3.1453,3.1469,3.1511,3.1489,3.151,3.1516,3.1522,3.153,3.1377,3.1518,3.1517,3.1517,3.1516,3.1516,0,3.1212,3.1224,3.1262,3.1298,3.1331,3.1308,3.1335,3.1365,3.1411,3.1434,3.1468,3.1522,3.1565,3.1576,3.1617,3.1649,3.1641,3.1661,3.1659,3.1663,3.1546,3.1529,3.1667,3.1667,3.1667,3.1667,3.1667,3.1667,3.1288,3.1351,3.1351,3.1424,3.1436,3.1487,3.1505,3.1528,3.1547,3.1608,3.1644,3.165,3.1669,3.1713,3.1752,3.1754,3.1772,3.1796,3.1795,3.1685,3.167,3.1656,3.1641,3.1799,3.1799,3.1908,3.1909,3.191]},{"header":{"parameterUnit":"m.s-1","parameterCategory":1,"la1":30.2991,"la2":30.254,"lo1":-89.0895,"lo2":-89.0444,"dy":0.0017,"dx":0.0017,"nx":28,"ny":28,"refTime":"2024-06-25T09:00:00:Z","depth":0,"parameterNumber":3,"parameterNumberName":"V-component_of_WINDS"},"data":[0,0,0,0,0,0,0,0,0,0,0,0,0,0,0,0,0,0,0,0,0,0,0,0,0,0,0,0,0,0,0,0,0,0,0,0,0,0,0,0,0,0,0,0,0,0,0,0,0,0,0,0,0,0,0,0,0,0,-2.3018,-2.3018,0,-2.2996,-2.2996,-2.2996,-2.2978,-2.2978,-2.2978,-2.2978,-2.2953,-2.2952,-2.2952,0,0,0,0,0,0,0,0,0,0,0,0,0,-2.3043,-2.3043,-2.3018,-2.3018,-2.3018,-2.2996,-2.2996,-2.2996,-2.2978,-2.2978,-2.2978,-2.2977,-2.2953,-2.2952,-2.2952,0,0,0,0,0,0,0,0,0,0,0,0,0,-2.3028,-2.3043,-2.3018,-2.3006,-2.3005,-2.2996,-2.2996,-2.2996,-2.2978,-2.2978,-2.2978,-2.2977,-2.2953,-2.2952,-2.2952,-2.2952,0,0,-2.2949,-2.2949,0,0,0,0,0,0,0,0,-2.3029,-2.3027,-2.3008,-2.3007,-2.3006,-2.299,-2.2996,-2.2981,-2.2978,-2.2988,-2.2978,-2.2977,-2.2965,-2.2963,-2.296,-2.2951,-2.295,-2.2949,-2.2949,-2.2948,-2.2948,0,0,0,0,0,0,0,-2.303,-2.3028,-2.3009,-2.3008,-2.3006,-2.3002,-2.2999,-2.2993,-2.2978,-2.2987,-2.2986,-2.2984,-2.2964,-2.296,-2.2959,-2.295,-2.2949,-2.2949,-2.2948,-2.2948,-2.2942,-2.2942,0,0,0,0,0,0,-2.3033,-2.3029,-2.301,-2.3009,-2.3017,-2.3001,-2.2999,-2.2995,-2.2978,-2.2976,-2.2984,-2.2983,-2.2962,-2.296,-2.2958,-2.2959,-2.2948,-2.2948,-2.2947,-2.2942,-2.2942,-2.2942,0,0,0,0,0,0,-2.3034,-2.3032,-2.3011,-2.3019,-2.3016,-2.3001,-2.2997,-2.2995,-2.2991,-2.2976,-2.2973,-2.2983,-2.2962,-2.2959,-2.2954,-2.2957,-2.2947,-2.2947,-2.2941,-2.2942,-2.2942,-2.2959,0,0,0,0,0,0,-2.3035,-2.3032,-2.3032,-2.3019,-2.3015,-2.3008,-2.2998,-2.2995,-2.299,-2.2989,-2.2974,-2.2971,-2.2961,-2.2956,-2.2954,-2.2956,-2.2946,-2.2941,-2.2942,-2.2942,-2.2958,-2.296,-2.2962,0,0,0,0,0,-2.3036,-2.3037,-2.3032,-2.303,-2.3015,-2.3008,-2.3006,-2.2995,-2.299,-2.299,-2.2981,-2.2972,-2.2958,-2.2955,-2.2953,-2.2955,-2.2941,-2.2941,-2.2942,-2.2958,-2.296,-2.2962,0,0,0,0,0,0,-2.305,-2.3035,-2.303,-2.3027,-2.3019,-2.3005,-2.3005,-2.2998,-2.299,-2.2989,-2.2975,-2.2972,-2.2969,-2.2961,-2.2959,-2.2956,-2.2948,-2.2948,-2.2961,-2.2963,-2.2964,-2.2966,-2.2946,0,0,0,0,0,-2.3053,-2.3049,-2.3036,-2.3035,-2.3031,-2.3019,-2.3015,-2.3008,-2.2999,-2.2995,-2.2985,-2.2976,-2.297,-2.2966,-2.2959,-2.2957,-2.2954,-2.2958,-2.296,-2.2961,-2.2962,-2.2961,-2.2963,-2.2944,-2.2944,-2.2944,0,0,-2.3059,-2.305,-2.3048,-2.3038,-2.3031,-2.3027,-2.3016,-2.3012,-2.3009,-2.2994,-2.299,-2.2982,-2.2971,-2.2969,-2.2967,-2.2962,-2.2966,-2.2962,-2.2964,-2.2963,-2.2962,-2.2964,-2.2966,-2.2945,-2.2945,-2.2945,0,0,-2.3068,-2.3061,-2.3059,-2.3053,-2.3044,-2.3036,-2.3035,-2.3023,-2.3018,-2.3014,-2.3003,-2.2999,-2.2988,-2.2981,-2.2976,-2.2985,-2.2976,-2.2983,-2.2992,-2.2992,-2.2993,-2.2994,-2.2998,-2.2999,-2.2983,-2.2983,-2.2983,0,-2.3076,-2.307,-2.3059,-2.3057,-2.3052,-2.3041,-2.3039,-2.3034,-2.3022,-2.3019,-2.3015,-2.3002,-2.2994,-2.299,-2.2992,-2.2988,-2.2988,-2.2984,-2.2994,-2.2995,-2.2996,-2.2999,-2.3001,-2.2984,-2.2984,-2.2984,-2.2984,0,-2.3081,-2.3077,-2.3077,-2.3068,-2.3064,-2.3062,-2.3051,-2.3048,-2.3041,-2.3034,-2.303,-2.302,-2.3012,-2.301,-2.3003,-2.3005,-2.3003,-2.2997,-2.2988,-2.2999,-2.3002,-2.3003,-2.2985,-2.2985,-2.2985,-2.2984,0,0,-2.3097,-2.3083,-2.3083,-2.3079,-2.3069,-2.3065,-2.3063,-2.3056,-2.3054,-2.3047,-2.3045,-2.3037,-2.3031,-2.3026,-2.3018,-2.3018,-2.3026,-2.3011,-2.3011,-2.3015,-2.303,-2.3035,-2.3037,-2.3021,-2.3021,-2.3021,-2.3031,0,-2.3104,-2.31,-2.3091,-2.309,-2.3087,-2.3076,-2.3075,-2.3068,-2.3061,-2.3057,-2.305,-2.3045,-2.3037,-2.3034,-2.3034,-2.3025,-2.3029,-2.3024,-2.3019,-2.3019,-2.3022,-2.3038,-2.3043,-2.3052,-2.3032,-2.3032,-2.3032,0,-2.3111,-2.3106,-2.3105,-2.3096,-2.3094,-2.3093,-2.3087,-2.3083,-2.3076,-2.3071,-2.3066,-2.3058,-2.3055,-2.3048,-2.3044,-2.3042,-2.3039,-2.3035,-2.3035,-2.3034,-2.3026,-2.3037,-2.3055,-2.3057,-2.3034,-2.3033,-2.3033,0,-2.3124,-2.3116,-2.3115,-2.3112,-2.3101,-2.3101,-2.3096,-2.3089,-2.3086,-2.308,-2.3078,-2.3072,-2.3068,-2.3064,-2.3054,-2.305,-2.3052,-2.3044,-2.3048,-2.3048,-2.3048,-2.3049,-2.3066,-2.3047,-2.3047,-2.3047,-2.3047,0,-2.3133,-2.3132,-2.3121,-2.312,-2.312,-2.311,-2.311,-2.3104,-2.3098,-2.3096,-2.3086,-2.3084,-2.3072,-2.3069,-2.3061,-2.306,-2.3058,-2.3054,-2.3052,-2.3055,-2.3056,-2.3053,-2.3052,-2.3047,-2.3047,-2.3047,-2.3047,0,-2.3146,-2.3138,-2.3136,-2.3127,-2.3125,-2.3125,-2.3117,-2.3116,-2.311,-2.3107,-2.3106,-2.3096,-2.3092,-2.3082,-2.3075,-2.307,-2.3071,-2.3067,-2.3074,-2.3072,-2.3077,-2.3077,-2.3094,-2.3096,-2.3075,-2.3075,-2.3076,0,-2.3152,-2.3152,-2.3143,-2.3142,-2.3138,-2.3136,-2.3133,-2.3124,-2.3121,-2.3114,-2.3114,-2.3109,-2.3105,-2.3099,-2.3091,-2.3086,-2.3082,-2.3088,-2.3081,-2.3085,-2.3083,-2.3083,-2.3083,-2.309,-2.309,-2.309,-2.309,0,-2.3164,-2.3161,-2.3158,-2.3154,-2.3151,-2.3147,-2.3143,-2.3142,-2.3132,-2.313,-2.3126,-2.3123,-2.3117,-2.3113,-2.3107,-2.3102,-2.3095,-2.3093,-2.3094,-2.3097,-2.3101,-2.3099,-2.3078,-2.3092,-2.3092,-2.3092,-2.3092,-2.3092,-2.3174,-2.3174,-2.3169,-2.3166,-2.3162,-2.3159,-2.3158,-2.3152,-2.3149,-2.3144,-2.3139,-2.3136,-2.313,-2.3122,-2.3117,-2.3115,-2.3111,-2.3112,-2.3112,-2.3113,-2.3114,-2.3102,-2.3114,-2.3114,-2.3114,-2.3114,-2.3113,0,-2.3186,-2.3183,-2.318,-2.3175,-2.3173,-2.3168,-2.3163,-2.3162,-2.316,-2.3155,-2.3152,-2.3149,-2.3145,-2.3137,-2.3133,-2.3133,-2.3129,-2.3132,-2.3132,-2.3131,-2.3118,-2.3118,-2.3135,-2.3135,-2.3135,-2.3135,-2.3135,-2.3135,-2.3192,-2.3192,-2.3188,-2.3187,-2.3183,-2.3181,-2.3179,-2.3176,-2.3172,-2.3169,-2.3167,-2.3162,-2.3156,-2.3152,-2.3149,-2.3147,-2.3146,-2.3149,-2.3146,-2.3134,-2.3132,-2.313,-2.313,-2.3149,-2.3149,-2.316,-2.316,-2.316]}]]